FW3671 Weather Reports


time (UTC)temp
C
wind
direction
speed
KPH
gust
KPH
rain 1hr
cm
rain 24hr
cm
rain mn
cm
humidity
%
barometer
mb
20260505084150 13 188 11.3 12.9 0.00 0.00 0.00 50 1010.0
20260505083647 13 196 11.3 17.7 0.00 0.00 0.00 50 1010.0
20260505083143 13 139 9.7 12.9 0.00 0.00 0.00 51 1010.0
20260505082639 13 167 6.4 9.7 0.00 0.00 0.00 51 1010.0
20260505082137 13 199 8.0 16.1 0.00 0.00 0.00 51 1010.1
20260505081632 13 132 4.8 20.9 0.00 0.00 0.00 51 1009.8
20260505081131 13 131 11.3 16.1 0.00 0.00 0.00 52 1010.0
20260505080627 13 128 12.9 22.5 0.00 0.00 0.00 51 1009.8
20260505080123 13 133 16.1 27.4 0.00 0.00 0.00 51 1010.1
20260505075619 13 156 12.9 17.7 0.00 0.00 0.00 52 1010.1
20260505075116 13 161 19.3 22.5 0.00 0.00 0.00 52 1009.8
20260505074613 13 166 9.7 33.8 0.00 0.00 0.00 51 1010.1
20260505074110 13 143 19.3 27.4 0.00 0.00 0.00 54 1010.0
20260505073608 13 144 20.9 33.8 0.00 0.00 0.00 55 1009.8
20260505073106 13 136 29.0 33.8 0.00 0.00 0.00 54 1009.7
20260505072601 12 121 37.0 38.6 0.00 0.00 0.00 57 1010.2
20260505072058 12 136 33.8 35.4 0.00 0.00 0.00 60 1009.8
20260505071553 12 167 19.3 38.6 0.00 0.00 0.00 63 1009.8
20260505071052 12 131 17.7 32.2 0.00 0.00 0.00 66 1009.7
20260505070548 12 145 17.7 29.0 0.00 0.00 0.00 67 1010.0
20260505070044 12 151 32.2 32.2 0.00 0.00 0.00 66 1010.1
20260505065540 12 145 17.7 41.8 0.00 0.00 0.00 66 1010.3
20260505065037 12 141 25.7 41.8 0.00 0.00 0.00 65 1010.3
20260505064534 12 150 27.4 35.4 0.00 0.00 0.00 66 1010.4
20260505064033 12 142 24.1 37.0 0.00 0.00 0.00 66 1010.4
20260505063529 12 164 19.3 37.0 0.00 0.00 0.00 66 1010.5
20260505063025 12 149 19.3 32.2 0.00 0.00 0.00 67 1010.4
20260505062522 12 152 22.5 40.2 0.00 0.00 0.00 67 1010.8
20260505062020 12 135 14.5 27.4 0.00 0.00 0.00 67 1010.5
20260505061517 12 136 22.5 32.2 0.00 0.00 0.00 67 1010.8
20260505061015 12 131 19.3 27.4 0.00 0.00 0.00 67 1010.5
20260505060512 12 117 22.5 40.2 0.00 0.00 0.00 67 1010.5
20260505060008 12 130 19.3 27.4 0.00 0.00 0.00 68 1010.7
20260505055504 12 156 19.3 27.4 0.00 0.00 0.00 67 1010.7
20260505055001 12 151 24.1 33.8 0.00 0.00 0.00 67 1010.4
20260505054458 12 128 19.3 30.6 0.00 0.00 0.00 66 1010.5
20260505053956 12 124 11.3 38.6 0.00 0.00 0.00 65 1010.5
20260505053453 12 158 11.3 33.8 0.00 0.00 0.00 64 1010.5
20260505052949 12 130 17.7 37.0 0.00 0.00 0.00 63 1010.8
20260505052447 12 134 30.6 33.8 0.00 0.00 0.00 62 1010.8
20260505051944 12 143 25.7 33.8 0.00 0.00 0.00 63 1010.7
20260505051440 13 131 27.4 40.2 0.00 0.00 0.00 63 1010.4
20260505050939 13 153 33.8 40.2 0.00 0.00 0.00 62 1010.7
20260505050437 13 136 20.9 40.2 0.00 0.00 0.00 61 1010.4
20260505041405 14 167 16.1 43.5 0.00 0.00 0.00 61 1009.7
20260505040901 14 143 33.8 43.5 0.00 0.00 0.00 58 1009.4
20260505040359 15 159 19.3 40.2 0.00 0.00 0.00 55 1009.6
20260505035855 15 139 41.8 56.3 0.00 0.00 0.00 53 1009.2
20260505035351 15 153 24.1 37.0 0.00 0.00 0.00 51 1009.0
20260505034849 15 148 17.7 30.6 0.00 0.00 0.00 48 1009.0
20260505034345 16 133 30.6 40.2 0.00 0.00 0.00 47 1008.9
20260505033842 16 185 17.7 37.0 0.00 0.00 0.00 45 1008.8
20260505033339 16 189 19.3 32.2 0.00 0.00 0.00 47 1008.8
20260505032837 16 160 17.7 29.0 0.00 0.00 0.00 47 1008.7
20260505032334 16 160 22.5 29.0 0.00 0.00 0.00 40 1008.6
20260505031831 17 154 22.5 24.1 0.00 0.00 0.00 38 1008.5
20260505031327 17 147 16.1 25.7 0.00 0.00 0.00 37 1008.2
20260505030825 17 150 17.7 25.7 0.00 0.00 0.00 39 1008.2
20260505030321 17 162 14.5 22.5 0.00 0.00 0.00 39 1008.3
20260505025816 17 157 9.7 17.7 0.00 0.00 0.00 39 1008.3
20260505025314 17 161 6.4 12.9 0.00 0.00 0.00 39 1008.1
20260505024812 17 169 11.3 12.9 0.00 0.00 0.00 39 1008.0
20260505024310 17 168 6.4 11.3 0.00 0.00 0.00 39 1008.1
20260505023807 17 180 8.0 17.7 0.00 0.00 0.00 39 1008.2
20260505023303 17 147 6.4 14.5 0.00 0.00 0.00 38 1008.1
20260505022801 17 133 4.8 9.7 0.00 0.00 0.00 38 1008.1
20260505022258 17 150 8.0 17.7 0.00 0.00 0.00 37 1007.9
20260505021755 17 151 8.0 19.3 0.00 0.00 0.00 37 1008.1
20260505021251 17 166 14.5 20.9 0.00 0.00 0.00 38 1007.9
20260505020747 17 164 19.3 22.5 0.00 0.00 0.00 37 1008.0
20260505020242 17 154 6.4 12.9 0.00 0.00 0.00 37 1008.0
20260505015740 17 140 8.0 14.5 0.00 0.00 0.00 37 1007.9
20260505015237 17 160 9.7 14.5 0.00 0.00 0.00 37 1008.0
20260505014734 18 177 8.0 12.9 0.00 0.00 0.00 37 1007.8
20260505014231 18 157 9.7 16.1 0.00 0.00 0.00 37 1008.0
20260505013728 18 195 12.9 16.1 0.00 0.00 0.00 37 1008.0
20260505013225 18 165 16.1 20.9 0.00 0.00 0.00 36 1008.0
20260505012723 18 158 17.7 22.5 0.00 0.00 0.00 36 1008.2
20260505012220 18 182 11.3 22.5 0.00 0.00 0.00 37 1008.0
20260505011716 18 147 8.0 32.2 0.00 0.00 0.00 36 1008.0
20260505011214 18 160 20.9 32.2 0.00 0.00 0.00 36 1008.1
20260505010708 18 150 17.7 25.7 0.00 0.00 0.00 36 1008.2
20260505010205 18 142 14.5 32.2 0.00 0.00 0.00 35 1008.3
20260505005701 20 132 19.3 32.2 0.00 0.00 0.00 33 1008.1
20260505005159 20 175 11.3 17.7 0.00 0.00 0.00 31 1008.3
20260505004656 20 141 4.8 6.4 0.00 0.00 0.00 30 1008.2
20260505004152 20 121 0.0 3.2 0.00 0.00 0.00 30 1008.0
20260505003649 21 19 0.0 1.6 0.00 0.00 0.00 27 1008.1
20260505003147 22 204 0.0 4.8 0.00 0.00 0.00 27 1008.1
20260505002643 22 227 4.8 6.4 0.00 0.00 0.00 28 1008.1
20260505002141 22 267 6.4 9.7 0.00 0.00 0.00 30 1008.2
20260505001638 21 18 3.2 3.2 0.00 0.00 0.00 30 1008.5
20260505001136 20 225 4.8 6.4 0.00 0.00 0.00 30 1008.5
20260505000632 20 276 11.3 12.9 0.00 0.00 0.00 31 1008.5
20260505000131 20 289 17.7 17.7 0.00 0.00 0.00 31 1008.3
20260504235626 20 336 17.7 20.9 0.00 0.00 0.00 30 1008.6
20260504235123 21 7 3.2 9.7 0.00 0.00 0.00 29 1008.2
20260504234620 21 345 6.4 8.0 0.00 0.00 0.00 28 1008.3
20260504234118 22 347 11.3 17.7 0.00 0.00 0.00 27 1008.6
20260504233613 22 0 11.3 17.7 0.00 0.00 0.00 28 1008.5
20260504233109 22 351 17.7 22.5 0.00 0.00 0.00 27 1008.5
20260504232607 22 298 12.9 25.7 0.00 0.00 0.00 26 1008.5
20260504232104 22 359 12.9 24.1 0.00 0.00 0.00 28 1008.3
20260504231601 21 352 14.5 16.1 0.00 0.00 0.00 28 1008.2
20260504231056 21 354 12.9 17.7 0.00 0.00 0.00 28 1008.5
20260504230553 22 301 3.2 11.3 0.00 0.00 0.00 28 1008.3
20260504230052 23 326 8.0 20.9 0.00 0.00 0.00 25 1008.3
20260504225549 22 292 3.2 14.5 0.00 0.00 0.00 27 1008.2
20260504225046 22 328 14.5 17.7 0.00 0.00 0.00 27 1008.6
20260504224543 23 335 12.9 20.9 0.00 0.00 0.00 28 1008.6
20260504224040 22 347 11.3 12.9 0.00 0.00 0.00 26 1009.0
20260504223537 22 358 12.9 20.9 0.00 0.00 0.00 27 1008.7
20260504223032 22 323 12.9 14.5 0.00 0.00 0.00 28 1008.7
20260504222529 22 343 14.5 22.5 0.00 0.00 0.00 30 1008.6
20260504222027 21 349 9.7 30.6 0.00 0.00 0.00 30 1008.7
20260504221524 20 333 3.2 25.7 0.00 0.00 0.00 33 1008.9
20260504221021 20 325 20.9 27.4 0.00 0.00 0.00 33 1008.9
20260504220517 20 12 12.9 20.9 0.00 0.00 0.00 33 1009.0
20260504220014 20 332 9.7 17.7 0.00 0.00 0.00 35 1008.9
20260504215510 19 312 3.2 20.9 0.00 0.00 0.00 37 1009.0
20260504215008 19 356 16.1 16.1 0.00 0.00 0.00 39 1009.3
20260504214504 18 319 6.4 12.9 0.00 0.00 0.00 37 1009.2
20260504214000 18 279 11.3 19.3 0.00 0.00 0.00 35 1009.4
20260504213456 18 320 6.4 11.3 0.00 0.00 0.00 35 1009.0
20260504212954 19 265 8.0 17.7 0.00 0.00 0.00 33 1009.3
20260504212450 19 261 14.5 20.9 0.00 0.00 0.00 33 1008.9
20260504211948 19 256 6.4 24.1 0.00 0.00 0.00 34 1008.9
20260504211444 20 260 24.1 27.4 0.00 0.00 0.00 33 1009.0
20260504210942 20 267 12.9 29.0 0.00 0.00 0.00 33 1008.9
20260504210438 20 245 17.7 27.4 0.00 0.00 0.00 31 1009.3
20260504205935 20 271 8.0 14.5 0.00 0.00 0.00 32 1009.2
20260504205433 20 256 14.5 16.1 0.00 0.00 0.00 31 1008.9
20260504204931 20 269 14.5 20.9 0.00 0.00 0.00 30 1008.8
20260504204429 20 304 8.0 16.1 0.00 0.00 0.00 30 1008.9
20260504203928 21 304 12.9 17.7 0.00 0.00 0.00 28 1008.9
20260504203425 21 328 4.8 12.9 0.00 0.00 0.00 29 1008.9
20260504202921 21 305 4.8 6.4 0.00 0.00 0.00 28 1008.8
20260504202418 21 268 9.7 17.7 0.00 0.00 0.00 28 1008.9
20260504201914 22 288 9.7 11.3 0.00 0.00 0.00 27 1009.0
20260504201412 22 21 8.0 17.7 0.00 0.00 0.00 27 1008.8
20260504200909 23 322 6.4 12.9 0.00 0.00 0.00 25 1009.2
20260504200406 23 323 3.2 9.7 0.00 0.00 0.00 26 1009.0
20260504195903 23 181 6.4 16.1 0.00 0.00 0.00 26 1008.9
20260504195358 24 134 4.8 12.9 0.00 0.00 0.00 24 1009.3
20260504194855 26 195 4.8 17.7 0.00 0.00 0.00 23 1009.3
20260504194350 25 217 11.3 19.3 0.00 0.00 0.00 27 1009.4
20260504193847 25 265 14.5 14.5 0.00 0.00 0.00 25 1009.3
20260504193344 25 71 8.0 12.9 0.00 0.00 0.00 27 1009.5
20260504192843 25 114 6.4 14.5 0.00 0.00 0.00 25 1009.6
20260504192340 24 199 14.5 16.1 0.00 0.00 0.00 26 1009.6
20260504191838 25 167 9.7 19.3 0.00 0.00 0.00 25 1009.5
20260504191336 25 198 9.7 9.7 0.00 0.00 0.00 25 1009.7
20260504190831 24 223 9.7 16.1 0.00 0.00 0.00 26 1009.7
20260504190327 23 97 1.6 14.5 0.00 0.00 0.00 27 1009.8
20260504185824 23 186 6.4 12.9 0.00 0.00 0.00 28 1010.1
20260504185321 23 212 9.7 27.4 0.00 0.00 0.00 25 1009.7
20260504184817 23 227 9.7 17.7 0.00 0.00 0.00 28 1010.0
20260504184313 23 186 14.5 17.7 0.00 0.00 0.00 28 1010.0
20260504183809 22 109 9.7 25.7 0.00 0.00 0.00 26 1010.1
20260504183306 23 13 3.2 17.7 0.00 0.00 0.00 30 1010.1
20260504182804 22 209 12.9 17.7 0.00 0.00 0.00 29 1010.4
20260504182301 22 153 17.7 24.1 0.00 0.00 0.00 27 1010.2
20260504181759 22 120 19.3 25.7 0.00 0.00 0.00 27 1010.3
20260504181256 22 141 12.9 19.3 0.00 0.00 0.00 28 1010.7
20260504180755 22 155 19.3 20.9 0.00 0.00 0.00 27 1010.4
20260504180253 22 107 9.7 16.1 0.00 0.00 0.00 27 1010.7
20260504175750 22 171 6.4 17.7 0.00 0.00 0.00 28 1010.5
20260504175247 22 174 6.4 17.7 0.00 0.00 0.00 27 1010.7
20260504174745 21 184 9.7 22.5 0.00 0.00 0.00 28 1010.7
20260504174243 22 146 4.8 16.1 0.00 0.00 0.00 29 1010.7
20260504173739 21 172 14.5 24.1 0.00 0.00 0.00 29 1010.9
20260504173236 21 190 6.4 19.3 0.00 0.00 0.00 30 1011.0
20260504172733 22 164 19.3 22.5 0.00 0.00 0.00 31 1010.7
20260504172229 21 178 8.0 24.1 0.00 0.00 0.00 31 1010.9
20260504171726 21 190 6.4 17.7 0.00 0.00 0.00 31 1011.1
20260504171223 21 167 4.8 22.5 0.00 0.00 0.00 30 1011.0
20260504170719 20 146 14.5 22.5 0.00 0.00 0.00 31 1011.0
20260504170217 20 161 9.7 30.6 0.00 0.00 0.00 32 1011.0
20260504160135 20 137 9.7 16.1 0.00 0.00 0.00 34 1011.0
20260504151103 16 166 12.9 24.1 0.00 0.00 0.00 41 1011.4
20260504150600 16 160 16.1 32.2 0.00 0.00 0.00 42 1011.6
20260504141026 16 146 14.5 25.7 0.00 0.00 0.00 40 1011.5
20260504140522 16 151 17.7 22.5 0.00 0.00 0.00 39 1011.1
20260504130447 15 167 9.7 27.4 0.00 0.00 0.00 39 1011.2
20260504110334 15 151 16.1 27.4 0.00 0.00 0.00 38 1011.6
20260504100251 15 148 24.1 30.6 0.00 0.00 0.00 34 1011.4